[[{"header":{"parameterUnit":"m.s-1","parameterCategory":1,"la1":30.2992,"la2":30.254,"lo1":-89.0895,"lo2":-89.0443,"dy":0.0025,"dx":0.0025,"nx":19,"ny":19,"refTime":"2026-03-17T09:00:00:Z","depth":0,"parameterNumber":2,"parameterNumberName":"U-component_of_WINDS"},"data":[0,0,0,-0.0888,-0.0888,-0.089,-0.089,-0.0897,-0.0897,0,0,0,0,0,0,0,0,0,0,0,-0.089,-0.089,-0.0888,-0.0888,-0.089,-0.089,-0.0897,-0.0897,0,0,0,0,0,0,0,0,0,0,0,-0.089,-0.089,-0.089,-0.0888,-0.089,-0.089,-0.0897,-0.0894,0,0,0,0,0,0,0,0,0,0,-0.0891,-0.0895,-0.089,-0.089,-0.0888,-0.089,-0.089,-0.0893,-0.0894,-0.0897,0,-0.0901,0,-0.0899,-0.0897,-0.0897,0,0,0,-0.0886,-0.0895,-0.0893,-0.089,-0.0888,-0.089,-0.0889,-0.0894,-0.0894,-0.0898,-0.0901,-0.0901,-0.0899,-0.0897,-0.0897,-0.0923,-0.0923,0,0,-0.0886,-0.0892,-0.0893,-0.0894,-0.0893,-0.0889,-0.0889,-0.0894,-0.0898,-0.0901,-0.0902,-0.0899,-0.0897,-0.0898,-0.0923,-0.0923,0,0,0,-0.0887,-0.0892,-0.089,-0.0893,-0.0893,-0.0889,-0.0889,-0.0898,-0.0897,-0.0902,-0.0899,-0.0898,-0.0898,-0.0923,-0.0923,-0.0938,0,0,0,-0.0887,-0.0892,-0.089,-0.0893,-0.0893,-0.0896,-0.0893,-0.0896,-0.0897,-0.0899,-0.0898,-0.0898,-0.0922,-0.0923,-0.0937,-0.0945,0,0,0,-0.0889,-0.0892,-0.0893,-0.0893,-0.0894,-0.0895,-0.0894,-0.0896,-0.0895,-0.0897,-0.0898,-0.0922,-0.0923,-0.0936,-0.0943,-0.0952,0,0,0,-0.0893,-0.0908,-0.0894,-0.0909,-0.0894,-0.0905,-0.0894,-0.0902,-0.0905,-0.0898,-0.0923,-0.0923,-0.0936,-0.0942,-0.0952,-0.0961,-0.0966,0,0,-0.0915,-0.091,-0.0919,-0.0907,-0.0921,-0.0904,-0.092,-0.0918,-0.0914,-0.092,-0.0921,-0.0937,-0.0943,-0.0952,-0.0989,-0.0993,0,0,0,-0.0928,-0.0934,-0.0937,-0.094,-0.0938,-0.0938,-0.0933,-0.0932,-0.0937,-0.0918,-0.0943,-0.0946,-0.0951,-0.0956,-0.0959,-0.0963,-0.0925,-0.0925,-0.0925,-0.0967,-0.096,-0.0973,-0.0966,-0.0969,-0.0963,-0.0965,-0.0962,-0.0955,-0.0961,-0.0963,-0.0986,-0.0991,-0.0994,-0.0998,-0.0967,-0.0967,-0.0967,-0.0967,-0.0998,-0.1006,-0.0994,-0.1003,-0.0994,-0.1002,-0.0996,-0.099,-0.0995,-0.0984,-0.0988,-0.0977,-0.0998,-0.1001,-0.0968,-0.0968,-0.0968,-0.0968,-0.0968,-0.1024,-0.1026,-0.1024,-0.1027,-0.103,-0.1022,-0.1027,-0.1019,-0.1012,-0.1016,-0.1017,-0.1017,-0.1016,-0.1017,-0.1017,-0.1017,-0.1017,-0.1018,-0.1018,-0.105,-0.1048,-0.1053,-0.1052,-0.1052,-0.1052,-0.1045,-0.1045,-0.1043,-0.1037,-0.1037,-0.1028,-0.1001,-0.0994,-0.1019,-0.1019,-0.1018,-0.1018,-0.1018,-0.1085,-0.1076,-0.1084,-0.1084,-0.1081,-0.1084,-0.1074,-0.1075,-0.1074,-0.1077,-0.1066,-0.1048,-0.1043,-0.104,-0.1035,-0.1068,-0.1068,-0.1068,-0.1068,-0.1106,-0.1103,-0.1109,-0.111,-0.111,-0.1101,-0.111,-0.1104,-0.1097,-0.1095,-0.1089,-0.1081,-0.1079,-0.1076,-0.1072,-0.1067,-0.1108,-0.1108,-0.1108,-0.1127,-0.1123,-0.1132,-0.1124,-0.1121,-0.1118,-0.1126,-0.1128,-0.1117,-0.1109,-0.1094,-0.1092,-0.1079,-0.1075,-0.1068,-0.1063,-0.1053,0,0]},{"header":{"parameterUnit":"m.s-1","parameterCategory":1,"la1":30.2992,"la2":30.254,"lo1":-89.0895,"lo2":-89.0443,"dy":0.0025,"dx":0.0025,"nx":19,"ny":19,"refTime":"2026-03-17T09:00:00:Z","depth":0,"parameterNumber":3,"parameterNumberName":"V-component_of_WINDS"},"data":[0,0,0,-5.8412,-5.8415,-5.8525,-5.8525,-5.8673,-5.8675,0,0,0,0,0,0,0,0,0,0,0,-5.8386,-5.8387,-5.8412,-5.8415,-5.8525,-5.8525,-5.8673,-5.8675,0,0,0,0,0,0,0,0,0,0,0,-5.8386,-5.8387,-5.8389,-5.8415,-5.8525,-5.8525,-5.8673,-5.8587,0,0,0,0,0,0,0,0,0,0,-5.8478,-5.8461,-5.8387,-5.8389,-5.8416,-5.8525,-5.8525,-5.8582,-5.8592,-5.8628,0,-5.8663,0,-5.8672,-5.8685,-5.8686,0,0,0,-5.8409,-5.8453,-5.8477,-5.8389,-5.8417,-5.8525,-5.8474,-5.8588,-5.8599,-5.864,-5.8665,-5.867,-5.8674,-5.8687,-5.8687,-5.8917,-5.8919,0,0,-5.8403,-5.8409,-5.847,-5.8485,-5.8471,-5.847,-5.8477,-5.8594,-5.862,-5.8665,-5.8673,-5.8676,-5.8688,-5.8689,-5.8916,-5.8918,0,0,0,-5.839,-5.8405,-5.8426,-5.8479,-5.8498,-5.8473,-5.8482,-5.8615,-5.8621,-5.8675,-5.8678,-5.8688,-5.869,-5.8915,-5.8917,-5.8991,0,0,0,-5.8386,-5.8397,-5.8423,-5.8428,-5.8497,-5.8559,-5.85,-5.8613,-5.8626,-5.8677,-5.8689,-5.8692,-5.8913,-5.8916,-5.8985,-5.9024,0,0,0,-5.8377,-5.8396,-5.8414,-5.8428,-5.8476,-5.8556,-5.857,-5.8616,-5.8629,-5.8686,-5.8692,-5.8912,-5.8915,-5.8981,-5.9017,-5.9088,0,0,0,-5.8368,-5.8476,-5.8416,-5.8538,-5.8475,-5.8602,-5.8569,-5.8662,-5.872,-5.8689,-5.8913,-5.8917,-5.8979,-5.9012,-5.9083,-5.915,-5.9178,0,0,-5.8508,-5.8493,-5.8565,-5.8514,-5.8653,-5.8585,-5.8734,-5.878,-5.8778,-5.8871,-5.8876,-5.8987,-5.9016,-5.9087,-5.9333,-5.9356,0,0,0,-5.8611,-5.8662,-5.8698,-5.8755,-5.8795,-5.8832,-5.8855,-5.8872,-5.8951,-5.8828,-5.9031,-5.9048,-5.909,-5.9121,-5.9141,-5.9176,-5.8931,-5.8931,-5.8931,-5.8816,-5.8811,-5.8929,-5.8938,-5.8994,-5.9018,-5.9062,-5.9089,-5.9065,-5.9113,-5.9141,-5.9291,-5.9328,-5.9343,-5.938,-5.9175,-5.9175,-5.9175,-5.9175,-5.9021,-5.9094,-5.9063,-5.9166,-5.916,-5.9245,-5.9273,-5.9253,-5.9331,-5.9269,-5.9305,-5.9239,-5.9368,-5.94,-5.9181,-5.918,-5.9179,-5.9179,-5.9178,-5.9156,-5.9191,-5.9211,-5.9295,-5.9359,-5.9363,-5.9441,-5.9431,-5.9421,-5.9457,-5.9486,-5.9485,-5.9483,-5.9471,-5.9472,-5.9473,-5.9473,-5.9473,-5.9474,-5.9288,-5.931,-5.9378,-5.9431,-5.9467,-5.9513,-5.9539,-5.9574,-5.9609,-5.9596,-5.9596,-5.9568,-5.9381,-5.9335,-5.9482,-5.948,-5.9479,-5.9479,-5.9478,-5.95,-5.9451,-5.9556,-5.9593,-5.9655,-5.972,-5.9707,-5.9779,-5.9805,-5.9844,-5.9809,-5.9672,-5.9656,-5.9641,-5.9603,-5.9809,-5.9809,-5.9809,-5.9809,-5.9615,-5.9606,-5.9713,-5.9772,-5.9829,-5.9829,-5.9947,-5.9968,-5.9981,-5.9998,-5.9966,-5.9914,-5.9899,-5.9892,-5.9871,-5.9835,-6.0097,-6.0097,-6.0097,-5.9745,-5.9742,-5.9846,-5.9861,-5.9909,-5.995,-6.0061,-6.0129,-6.0133,-6.0109,-6.001,-5.9998,-5.9914,-5.9887,-5.9861,-5.9829,-5.9763,0,0]}]]